Time,TemperatureF,DewpointF,PressureIn,WindDirection,WindDirectionDegrees,WindSpeedMPH,WindSpeedGustMPH,Humidity,HourlyPrecipIn,Conditions,Clouds,dailyrainin,SoftwareType,DateUTC
2013-03-11 00:00:00,32.0,31.0,29.95,SSE,157,0.0,0.0,93,0.00,,,0.00,Rainwise IP-100,2013-03-11 04:00:00,
2013-03-11 00:01:00,32.0,31.0,29.96,SSE,157,0.0,0.0,92,0.00,,,0.00,Rainwise IP-100,2013-03-11 04:01:00,
2013-03-11 00:06:00,32.0,31.0,29.96,West,270,2.0,3.0,93,0.00,,,0.00,Rainwise IP-100,2013-03-11 04:06:00,
2013-03-11 00:11:00,32.0,31.0,29.96,West,270,1.0,3.0,92,0.00,,,0.00,Rainwise IP-100,2013-03-11 04:11:00,
2013-03-11 00:16:00,32.0,31.0,29.96,West,270,2.0,3.0,93,0.00,,,0.00,Rainwise IP-100,2013-03-11 04:16:00,
2013-03-11 00:21:00,32.0,31.0,29.96,West,270,3.0,5.0,93,0.00,,,0.00,Rainwise IP-100,2013-03-11 04:21:00,
2013-03-11 00:26:00,32.0,31.0,29.96,West,270,0.0,4.0,93,0.00,,,0.00,Rainwise IP-100,2013-03-11 04:26:00,
2013-03-11 00:31:00,33.0,31.0,29.95,SE,135,4.0,4.0,92,0.00,,,0.00,Rainwise IP-100,2013-03-11 04:31:00,
2013-03-11 00:36:00,32.0,31.0,29.95,SE,135,3.0,4.0,92,0.00,,,0.00,Rainwise IP-100,2013-03-11 04:36:00,
2013-03-11 00:41:00,33.0,31.0,29.94,South,180,0.0,4.0,91,0.00,,,0.00,Rainwise IP-100,2013-03-11 04:41:00,
2013-03-11 00:46:00,32.0,31.0,29.94,SW,225,0.0,3.0,92,0.00,,,0.00,Rainwise IP-100,2013-03-11 04:46:00,
2013-03-11 00:51:00,33.0,31.0,29.95,SW,225,0.0,3.0,91,0.00,,,0.00,Rainwise IP-100,2013-03-11 04:51:00,
2013-03-11 00:57:00,32.0,31.0,29.95,SW,225,1.0,1.0,92,0.00,,,0.00,Rainwise IP-100,2013-03-11 04:57:00,
2013-03-11 01:02:00,32.0,31.0,29.95,SW,225,0.0,1.0,92,0.00,,,0.00,Rainwise IP-100,2013-03-11 05:02:00,
2013-03-11 01:07:00,32.0,31.0,29.95,SW,225,0.0,0.0,92,0.00,,,0.00,Rainwise IP-100,2013-03-11 05:07:00,
2013-03-11 01:11:00,33.0,31.0,29.95,SW,225,0.0,0.0,91,0.00,,,0.00,Rainwise IP-100,2013-03-11 05:11:00,
2013-03-11 01:16:00,33.0,31.0,29.95,SE,135,2.0,3.0,92,0.00,,,0.00,Rainwise IP-100,2013-03-11 05:16:00,
2013-03-11 01:21:00,33.0,31.0,29.95,SE,135,2.0,3.0,92,0.00,,,0.00,Rainwise IP-100,2013-03-11 05:21:00,
2013-03-11 01:26:00,33.0,31.0,29.95,South,180,2.0,3.0,92,0.00,,,0.00,Rainwise IP-100,2013-03-11 05:26:00,
2013-03-11 01:31:00,33.0,31.0,29.96,SSE,157,0.0,4.0,92,0.00,,,0.00,Rainwise IP-100,2013-03-11 05:31:00,
2013-03-11 01:36:00,33.0,32.0,29.96,ESE,112,2.0,5.0,93,0.00,,,0.00,Rainwise IP-100,2013-03-11 05:36:00,
2013-03-11 01:41:00,33.0,32.0,29.94,East,90,3.0,5.0,93,0.00,,,0.00,Rainwise IP-100,2013-03-11 05:41:00,
2013-03-11 01:46:00,33.0,32.0,29.94,SSE,157,0.0,4.0,93,0.00,,,0.00,Rainwise IP-100,2013-03-11 05:46:00,
2013-03-11 01:51:00,33.0,31.0,29.95,SSE,157,0.0,0.0,92,0.00,,,0.00,Rainwise IP-100,2013-03-11 05:51:00,
2013-03-11 01:56:00,33.0,32.0,29.95,East,90,2.0,3.0,93,0.00,,,0.00,Rainwise IP-100,2013-03-11 05:56:00,
2013-03-11 02:01:00,33.0,32.0,29.94,East,90,2.0,3.0,93,0.00,,,0.00,Rainwise IP-100,2013-03-11 06:01:00,
2013-03-11 02:06:00,33.0,32.0,29.94,ENE,67,0.0,3.0,94,0.00,,,0.00,Rainwise IP-100,2013-03-11 06:06:00,
2013-03-11 02:11:00,33.0,32.0,29.95,ENE,67,0.0,0.0,93,0.00,,,0.00,Rainwise IP-100,2013-03-11 06:11:00,
2013-03-11 02:16:00,33.0,32.0,29.95,ENE,67,0.0,0.0,94,0.00,,,0.00,Rainwise IP-100,2013-03-11 06:16:00,
2013-03-11 02:21:00,33.0,32.0,29.95,ENE,67,0.0,3.0,93,0.00,,,0.00,Rainwise IP-100,2013-03-11 06:21:00,
2013-03-11 02:26:00,33.0,32.0,29.95,West,270,0.0,3.0,94,0.00,,,0.00,Rainwise IP-100,2013-03-11 06:26:00,
2013-03-11 02:32:00,33.0,32.0,29.94,SW,225,0.0,3.0,93,0.00,,,0.00,Rainwise IP-100,2013-03-11 06:32:00,
2013-03-11 02:37:00,33.0,32.0,29.94,SW,225,3.0,4.0,94,0.00,,,0.00,Rainwise IP-100,2013-03-11 06:37:00,
2013-03-11 02:41:00,34.0,33.0,29.94,SSW,202,4.0,7.0,93,0.00,,,0.00,Rainwise IP-100,2013-03-11 06:41:00,
2013-03-11 02:47:00,34.0,33.0,29.94,SSW,202,3.0,4.0,94,0.00,,,0.00,Rainwise IP-100,2013-03-11 06:47:00,
2013-03-11 02:52:00,34.0,33.0,29.95,South,180,2.0,4.0,93,0.00,,,0.00,Rainwise IP-100,2013-03-11 06:52:00,
2013-03-11 02:56:00,34.0,33.0,29.95,West,270,1.0,5.0,94,0.00,,,0.00,Rainwise IP-100,2013-03-11 06:56:00,
2013-03-11 03:01:00,35.0,33.0,29.95,WSW,247,3.0,11.0,93,0.00,,,0.00,Rainwise IP-100,2013-03-11 07:01:00,
2013-03-11 03:02:00,35.0,33.0,29.95,SW,225,7.0,11.0,93,0.00,,,0.00,Rainwise IP-100,2013-03-11 07:02:00,
2013-03-11 03:06:00,35.0,33.0,29.95,SW,225,4.0,14.0,93,0.00,,,0.00,Rainwise IP-100,2013-03-11 07:06:00,
2013-03-11 03:11:00,35.0,33.0,29.94,SSW,202,6.0,10.0,93,0.00,,,0.00,Rainwise IP-100,2013-03-11 07:11:00,
2013-03-11 03:16:00,35.0,33.0,29.94,SSE,157,3.0,10.0,93,0.00,,,0.00,Rainwise IP-100,2013-03-11 07:16:00,
2013-03-11 03:21:00,35.0,32.0,29.92,WSW,247,4.0,10.0,92,0.00,,,0.00,Rainwise IP-100,2013-03-11 07:21:00,
2013-03-11 03:26:00,35.0,32.0,29.92,SW,225,4.0,9.0,92,0.00,,,0.00,Rainwise IP-100,2013-03-11 07:26:00,
2013-03-11 03:31:00,36.0,33.0,29.93,WSW,247,7.0,12.0,91,0.00,,,0.00,Rainwise IP-100,2013-03-11 07:31:00,
2013-03-11 03:32:00,35.0,32.0,29.93,SW,225,6.0,12.0,92,0.00,,,0.00,Rainwise IP-100,2013-03-11 07:32:00,
2013-03-11 03:36:00,35.0,32.0,29.93,West,270,7.0,13.0,92,0.00,,,0.00,Rainwise IP-100,2013-03-11 07:36:00,
2013-03-11 03:41:00,36.0,33.0,29.93,SW,225,4.0,9.0,91,0.00,,,0.00,Rainwise IP-100,2013-03-11 07:41:00,
2013-03-11 03:44:00,36.0,33.0,29.93,WSW,247,5.0,9.0,91,0.00,,,0.00,Rainwise IP-100,2013-03-11 07:44:00,
2013-03-11 03:45:00,36.0,33.0,29.93,SW,225,5.0,9.0,91,0.00,,,0.00,Rainwise IP-100,2013-03-11 07:45:00,
2013-03-11 03:48:00,36.0,33.0,29.93,West,270,5.0,9.0,91,0.00,,,0.00,Rainwise IP-100,2013-03-11 07:48:00,
2013-03-11 03:49:00,36.0,33.0,29.93,West,270,5.0,9.0,91,0.00,,,0.00,Rainwise IP-100,2013-03-11 07:49:00,
2013-03-11 03:52:00,36.0,33.0,29.93,WSW,247,5.0,9.0,91,0.00,,,0.00,Rainwise IP-100,2013-03-11 07:52:00,
2013-03-11 03:56:00,36.0,33.0,29.92,SW,225,7.0,10.0,91,0.00,,,0.00,Rainwise IP-100,2013-03-11 07:56:00,
2013-03-11 03:57:00,36.0,33.0,29.92,WSW,247,8.0,10.0,91,0.00,,,0.00,Rainwise IP-100,2013-03-11 07:57:00,
2013-03-11 04:02:00,36.0,33.0,29.91,SSW,202,4.0,10.0,91,0.00,,,0.00,Rainwise IP-100,2013-03-11 08:02:00,
2013-03-11 04:06:00,36.0,33.0,29.91,SW,225,7.0,8.0,91,0.00,,,0.00,Rainwise IP-100,2013-03-11 08:06:00,
2013-03-11 04:11:00,36.0,33.0,29.91,SW,225,5.0,11.0,90,0.00,,,0.00,Rainwise IP-100,2013-03-11 08:11:00,
2013-03-11 04:16:00,36.0,33.0,29.91,SSE,157,3.0,7.0,91,0.00,,,0.00,Rainwise IP-100,2013-03-11 08:16:00,
2013-03-11 04:21:00,36.0,33.0,29.91,SSW,202,3.0,7.0,90,0.00,,,0.00,Rainwise IP-100,2013-03-11 08:21:00,
2013-03-11 04:26:00,36.0,33.0,29.91,SSE,157,4.0,6.0,91,0.00,,,0.00,Rainwise IP-100,2013-03-11 08:26:00,
2013-03-11 04:31:00,36.0,33.0,29.91,SSW,202,2.0,5.0,91,0.00,,,0.00,Rainwise IP-100,2013-03-11 08:31:00,
2013-03-11 04:36:00,36.0,33.0,29.91,SSW,202,3.0,6.0,91,0.00,,,0.00,Rainwise IP-100,2013-03-11 08:36:00,
2013-03-11 04:41:00,36.0,33.0,29.91,SW,225,3.0,5.0,91,0.00,,,0.00,Rainwise IP-100,2013-03-11 08:41:00,
2013-03-11 04:46:00,36.0,33.0,29.91,SSW,202,5.0,10.0,91,0.00,,,0.00,Rainwise IP-100,2013-03-11 08:46:00,
2013-03-11 04:51:00,36.0,33.0,29.90,SSW,202,4.0,7.0,91,0.00,,,0.00,Rainwise IP-100,2013-03-11 08:51:00,
2013-03-11 04:56:00,36.0,33.0,29.90,SW,225,4.0,6.0,91,0.00,,,0.00,Rainwise IP-100,2013-03-11 08:56:00,
2013-03-11 05:01:00,36.0,33.0,29.90,SE,135,3.0,8.0,91,0.00,,,0.00,Rainwise IP-100,2013-03-11 09:01:00,
2013-03-11 05:06:00,36.0,33.0,29.90,SSW,202,6.0,8.0,91,0.00,,,0.00,Rainwise IP-100,2013-03-11 09:06:00,
2013-03-11 05:11:00,36.0,33.0,29.89,SSW,202,3.0,8.0,90,0.00,,,0.00,Rainwise IP-100,2013-03-11 09:11:00,
2013-03-11 05:16:00,36.0,33.0,29.89,SSW,202,4.0,9.0,91,0.00,,,0.00,Rainwise IP-100,2013-03-11 09:16:00,
2013-03-11 05:21:00,36.0,33.0,29.89,SSW,202,4.0,9.0,90,0.00,,,0.00,Rainwise IP-100,2013-03-11 09:21:00,
2013-03-11 05:26:00,36.0,33.0,29.89,SW,225,3.0,10.0,91,0.00,,,0.00,Rainwise IP-100,2013-03-11 09:26:00,
2013-03-11 05:31:00,37.0,35.0,29.90,SW,225,8.0,9.0,90,0.00,,,0.00,Rainwise IP-100,2013-03-11 09:31:00,
2013-03-11 05:36:00,36.0,33.0,29.90,SSW,202,7.0,13.0,90,0.00,,,0.00,Rainwise IP-100,2013-03-11 09:36:00,
2013-03-11 05:41:00,37.0,35.0,29.89,SW,225,8.0,10.0,90,0.00,,,0.00,Rainwise IP-100,2013-03-11 09:41:00,
2013-03-11 05:46:00,37.0,35.0,29.89,SSW,202,4.0,8.0,90,0.00,,,0.00,Rainwise IP-100,2013-03-11 09:46:00,
2013-03-11 05:51:00,37.0,35.0,29.91,South,180,3.0,8.0,90,0.00,,,0.00,Rainwise IP-100,2013-03-11 09:51:00,
2013-03-11 05:56:00,37.0,35.0,29.91,SW,225,0.0,7.0,91,0.00,,,0.00,Rainwise IP-100,2013-03-11 09:56:00,
2013-03-11 06:01:00,37.0,35.0,29.92,SW,225,4.0,5.0,90,0.00,,,0.00,Rainwise IP-100,2013-03-11 10:01:00,
2013-03-11 06:06:00,37.0,35.0,29.92,SW,225,5.0,5.0,91,0.00,,,0.00,Rainwise IP-100,2013-03-11 10:06:00,
2013-03-11 06:11:00,37.0,35.0,29.90,South,180,6.0,10.0,90,0.00,,,0.00,Rainwise IP-100,2013-03-11 10:11:00,
2013-03-11 06:16:00,37.0,35.0,29.90,SW,225,5.0,8.0,91,0.00,,,0.00,Rainwise IP-100,2013-03-11 10:16:00,
2013-03-11 06:21:00,37.0,35.0,29.90,WSW,247,4.0,9.0,90,0.00,,,0.00,Rainwise IP-100,2013-03-11 10:21:00,
2013-03-11 06:26:00,37.0,35.0,29.90,WSW,247,3.0,6.0,91,0.00,,,0.00,Rainwise IP-100,2013-03-11 10:26:00,
2013-03-11 06:31:00,37.0,35.0,29.89,SSW,202,7.0,8.0,91,0.00,,,0.00,Rainwise IP-100,2013-03-11 10:31:00,
2013-03-11 06:36:00,37.0,35.0,29.89,SW,225,3.0,8.0,91,0.00,,,0.00,Rainwise IP-100,2013-03-11 10:36:00,
2013-03-11 06:41:00,37.0,35.0,29.90,SSW,202,4.0,6.0,91,0.00,,,0.00,Rainwise IP-100,2013-03-11 10:41:00,
2013-03-11 06:46:00,37.0,35.0,29.90,WSW,247,5.0,6.0,91,0.00,,,0.00,Rainwise IP-100,2013-03-11 10:46:00,
2013-03-11 06:51:00,37.0,35.0,29.90,SSW,202,1.0,7.0,91,0.00,,,0.00,Rainwise IP-100,2013-03-11 10:51:00,
2013-03-11 06:56:00,37.0,35.0,29.90,West,270,6.0,8.0,92,0.00,,,0.00,Rainwise IP-100,2013-03-11 10:56:00,
2013-03-11 07:01:00,37.0,35.0,29.88,SSW,202,5.0,7.0,91,0.00,,,0.00,Rainwise IP-100,2013-03-11 11:01:00,
2013-03-11 07:06:00,37.0,35.0,29.88,SSW,202,4.0,6.0,92,0.00,,,0.00,Rainwise IP-100,2013-03-11 11:06:00,
2013-03-11 07:11:00,37.0,35.0,29.88,SW,225,5.0,9.0,91,0.00,,,0.00,Rainwise IP-100,2013-03-11 11:11:00,
2013-03-11 07:16:00,37.0,35.0,29.88,WSW,247,7.0,8.0,92,0.00,,,0.00,Rainwise IP-100,2013-03-11 11:16:00,
2013-03-11 07:21:00,37.0,35.0,29.88,SW,225,2.0,7.0,91,0.00,,,0.00,Rainwise IP-100,2013-03-11 11:21:00,
2013-03-11 07:26:00,37.0,35.0,29.88,SW,225,4.0,5.0,92,0.00,,,0.00,Rainwise IP-100,2013-03-11 11:26:00,
2013-03-11 07:31:00,38.0,36.0,29.88,South,180,3.0,5.0,91,0.00,,,0.00,Rainwise IP-100,2013-03-11 11:31:00,
2013-03-11 07:36:00,37.0,35.0,29.88,West,270,4.0,8.0,92,0.00,,,0.00,Rainwise IP-100,2013-03-11 11:36:00,
2013-03-11 07:37:00,37.0,35.0,29.88,WSW,247,5.0,8.0,92,0.00,,,0.00,Rainwise IP-100,2013-03-11 11:37:00,
2013-03-11 07:41:00,38.0,36.0,29.89,WSW,247,4.0,10.0,91,0.00,,,0.00,Rainwise IP-100,2013-03-11 11:41:00,
2013-03-11 07:46:00,38.0,36.0,29.89,West,270,4.0,7.0,91,0.00,,,0.00,Rainwise IP-100,2013-03-11 11:46:00,
2013-03-11 07:51:00,38.0,36.0,29.90,WSW,247,2.0,9.0,91,0.00,,,0.00,Rainwise IP-100,2013-03-11 11:51:00,
2013-03-11 07:56:00,38.0,36.0,29.90,WSW,247,6.0,8.0,92,0.00,,,0.00,Rainwise IP-100,2013-03-11 11:56:00,
2013-03-11 08:01:00,38.0,36.0,29.89,SW,225,3.0,9.0,91,0.00,,,0.00,Rainwise IP-100,2013-03-11 12:01:00,
2013-03-11 08:06:00,38.0,36.0,29.89,SSW,202,3.0,6.0,91,0.00,,,0.00,Rainwise IP-100,2013-03-11 12:06:00,
2013-03-11 08:08:00,38.0,36.0,29.89,ESE,112,0.0,6.0,91,0.00,,,0.00,Rainwise IP-100,2013-03-11 12:08:00,
2013-03-11 08:09:00,38.0,36.0,29.89,SE,135,3.0,5.0,91,0.00,,,0.00,Rainwise IP-100,2013-03-11 12:09:00,
2013-03-11 08:11:00,38.0,36.0,29.91,West,270,1.0,5.0,91,0.00,,,0.00,Rainwise IP-100,2013-03-11 12:11:00,
2013-03-11 08:14:00,38.0,36.0,29.91,West,270,4.0,5.0,91,0.00,,,0.00,Rainwise IP-100,2013-03-11 12:14:00,
2013-03-11 08:15:00,38.0,36.0,29.91,West,270,4.0,5.0,91,0.00,,,0.00,Rainwise IP-100,2013-03-11 12:15:00,
2013-03-11 08:17:00,38.0,36.0,29.91,West,270,3.0,4.0,91,0.00,,,0.00,Rainwise IP-100,2013-03-11 12:17:00,
2013-03-11 08:19:00,38.0,36.0,29.91,SSW,202,4.0,5.0,91,0.00,,,0.00,Rainwise IP-100,2013-03-11 12:19:00,
2013-03-11 08:20:00,38.0,36.0,29.91,South,180,2.0,5.0,91,0.00,,,0.00,Rainwise IP-100,2013-03-11 12:20:00,
2013-03-11 08:22:00,38.0,36.0,29.91,SSW,202,5.0,5.0,91,0.00,,,0.00,Rainwise IP-100,2013-03-11 12:22:00,
2013-03-11 08:27:00,38.0,36.0,29.91,West,270,5.0,5.0,91,0.00,,,0.00,Rainwise IP-100,2013-03-11 12:27:00,
2013-03-11 08:32:00,38.0,36.0,29.92,SW,225,5.0,10.0,91,0.00,,,0.00,Rainwise IP-100,2013-03-11 12:32:00,
2013-03-11 08:37:00,38.0,36.0,29.92,SW,225,2.0,7.0,91,0.00,,,0.00,Rainwise IP-100,2013-03-11 12:37:00,
2013-03-11 08:41:00,39.0,37.0,29.92,West,270,3.0,7.0,90,0.00,,,0.00,Rainwise IP-100,2013-03-11 12:41:00,
2013-03-11 08:46:00,38.0,36.0,29.92,SW,225,7.0,7.0,91,0.00,,,0.00,Rainwise IP-100,2013-03-11 12:46:00,
2013-03-11 08:51:00,39.0,37.0,29.91,SW,225,6.0,12.0,90,0.00,,,0.00,Rainwise IP-100,2013-03-11 12:51:00,
2013-03-11 08:56:00,39.0,37.0,29.91,WSW,247,8.0,10.0,91,0.00,,,0.00,Rainwise IP-100,2013-03-11 12:56:00,
2013-03-11 09:01:00,39.0,37.0,29.92,SSW,202,4.0,10.0,90,0.00,,,0.00,Rainwise IP-100,2013-03-11 13:01:00,
2013-03-11 09:06:00,39.0,37.0,29.92,WSW,247,7.0,9.0,90,0.00,,,0.00,Rainwise IP-100,2013-03-11 13:06:00,
2013-03-11 09:11:00,39.0,37.0,29.93,SW,225,7.0,9.0,90,0.00,,,0.00,Rainwise IP-100,2013-03-11 13:11:00,
2013-03-11 09:16:00,39.0,37.0,29.93,WSW,247,5.0,10.0,91,0.00,,,0.00,Rainwise IP-100,2013-03-11 13:16:00,
2013-03-11 09:21:00,39.0,37.0,29.92,SW,225,5.0,10.0,90,0.00,,,0.00,Rainwise IP-100,2013-03-11 13:21:00,
2013-03-11 09:26:00,39.0,37.0,29.92,South,180,4.0,12.0,90,0.00,,,0.00,Rainwise IP-100,2013-03-11 13:26:00,
2013-03-11 09:31:00,39.0,37.0,29.92,South,180,3.0,11.0,90,0.00,,,0.00,Rainwise IP-100,2013-03-11 13:31:00,
2013-03-11 09:36:00,39.0,37.0,29.92,SW,225,3.0,9.0,90,0.00,,,0.00,Rainwise IP-100,2013-03-11 13:36:00,
2013-03-11 09:41:00,39.0,37.0,29.91,SW,225,5.0,9.0,90,0.00,,,0.00,Rainwise IP-100,2013-03-11 13:41:00,
2013-03-11 09:46:00,39.0,37.0,29.91,SSW,202,10.0,10.0,90,0.00,,,0.00,Rainwise IP-100,2013-03-11 13:46:00,
2013-03-11 09:51:00,39.0,36.0,29.92,SW,225,6.0,12.0,89,0.00,,,0.00,Rainwise IP-100,2013-03-11 13:51:00,
2013-03-11 09:56:00,39.0,37.0,29.92,SW,225,5.0,14.0,90,0.00,,,0.00,Rainwise IP-100,2013-03-11 13:56:00,
2013-03-11 10:01:00,39.0,36.0,29.92,West,270,7.0,11.0,89,0.00,,,0.00,Rainwise IP-100,2013-03-11 14:01:00,
2013-03-11 10:06:00,39.0,36.0,29.92,SW,225,6.0,13.0,89,0.00,,,0.00,Rainwise IP-100,2013-03-11 14:06:00,
2013-03-11 10:11:00,39.0,36.0,29.92,SSW,202,4.0,13.0,89,0.00,,,0.00,Rainwise IP-100,2013-03-11 14:11:00,
2013-03-11 10:16:00,39.0,36.0,29.92,SW,225,9.0,14.0,89,0.00,,,0.00,Rainwise IP-100,2013-03-11 14:16:00,
2013-03-11 10:21:00,40.0,37.0,29.92,SSW,202,7.0,11.0,88,0.00,,,0.00,Rainwise IP-100,2013-03-11 14:21:00,
2013-03-11 10:26:00,39.0,36.0,29.92,WSW,247,6.0,15.0,88,0.00,,,0.00,Rainwise IP-100,2013-03-11 14:26:00,
2013-03-11 10:31:00,40.0,37.0,29.91,WSW,247,10.0,16.0,87,0.00,,,0.00,Rainwise IP-100,2013-03-11 14:31:00,
2013-03-11 10:36:00,40.0,37.0,29.91,SW,225,10.0,12.0,87,0.00,,,0.00,Rainwise IP-100,2013-03-11 14:36:00,
2013-03-11 10:41:00,40.0,36.0,29.90,SW,225,6.0,22.0,85,0.00,,,0.00,Rainwise IP-100,2013-03-11 14:41:00,
2013-03-11 10:46:00,40.0,36.0,29.90,SW,225,12.0,15.0,85,0.00,,,0.00,Rainwise IP-100,2013-03-11 14:46:00,
2013-03-11 10:51:00,40.0,36.0,29.91,SSW,202,6.0,14.0,85,0.00,,,0.00,Rainwise IP-100,2013-03-11 14:51:00,
2013-03-11 10:56:00,40.0,36.0,29.91,South,180,5.0,10.0,84,0.00,,,0.00,Rainwise IP-100,2013-03-11 14:56:00,
2013-03-11 11:01:00,41.0,37.0,29.91,WSW,247,5.0,10.0,83,0.00,,,0.00,Rainwise IP-100,2013-03-11 15:01:00,
2013-03-11 11:06:00,41.0,36.0,29.91,South,180,8.0,15.0,82,0.00,,,0.00,Rainwise IP-100,2013-03-11 15:06:00,
2013-03-11 11:11:00,41.0,36.0,29.90,SW,225,7.0,14.0,80,0.00,,,0.00,Rainwise IP-100,2013-03-11 15:11:00,
2013-03-11 11:16:00,41.0,36.0,29.90,South,180,7.0,12.0,80,0.00,,,0.00,Rainwise IP-100,2013-03-11 15:16:00,
2013-03-11 11:21:00,42.0,36.0,29.90,SW,225,4.0,11.0,79,0.00,,,0.00,Rainwise IP-100,2013-03-11 15:21:00,
2013-03-11 11:26:00,42.0,36.0,29.90,SW,225,5.0,11.0,79,0.00,,,0.00,Rainwise IP-100,2013-03-11 15:26:00,
2013-03-11 11:31:00,43.0,37.0,29.90,SW,225,5.0,10.0,80,0.00,,,0.00,Rainwise IP-100,2013-03-11 15:31:00,
2013-03-11 11:36:00,42.0,36.0,29.90,WSW,247,8.0,14.0,78,0.00,,,0.00,Rainwise IP-100,2013-03-11 15:36:00,
2013-03-11 11:41:00,42.0,36.0,29.90,WSW,247,7.0,17.0,78,0.00,,,0.00,Rainwise IP-100,2013-03-11 15:41:00,
2013-03-11 11:46:00,42.0,36.0,29.90,WSW,247,6.0,14.0,79,0.00,,,0.00,Rainwise IP-100,2013-03-11 15:46:00,
2013-03-11 11:51:00,42.0,36.0,29.90,South,180,8.0,17.0,78,0.00,,,0.00,Rainwise IP-100,2013-03-11 15:51:00,
2013-03-11 11:56:00,42.0,36.0,29.90,West,270,10.0,14.0,78,0.00,,,0.00,Rainwise IP-100,2013-03-11 15:56:00,
2013-03-11 12:01:00,42.0,36.0,29.90,West,270,6.0,15.0,78,0.00,,,0.00,Rainwise IP-100,2013-03-11 16:01:00,
2013-03-11 12:06:00,42.0,36.0,29.90,SW,225,6.0,14.0,78,0.00,,,0.00,Rainwise IP-100,2013-03-11 16:06:00,
2013-03-11 12:11:00,43.0,37.0,29.90,WSW,247,8.0,14.0,79,0.00,,,0.00,Rainwise IP-100,2013-03-11 16:11:00,
2013-03-11 12:15:00,43.0,37.0,29.90,WSW,247,8.0,14.0,79,0.00,,,0.00,Rainwise IP-100,2013-03-11 16:15:00,
2013-03-11 12:26:00,42.0,37.0,29.92,SW,225,10.0,14.0,80,0.00,,,0.00,Rainwise IP-100,2013-03-11 16:26:00,
2013-03-11 12:31:00,42.0,36.0,29.92,SSW,202,4.0,20.0,78,0.00,,,0.00,Rainwise IP-100,2013-03-11 16:31:00,
2013-03-11 12:36:00,42.0,36.0,29.91,WSW,247,15.0,17.0,76,0.00,,,0.00,Rainwise IP-100,2013-03-11 16:36:00,
2013-03-11 12:41:00,42.0,36.0,29.90,SW,225,13.0,18.0,78,0.00,,,0.00,Rainwise IP-100,2013-03-11 16:41:00,
2013-03-11 12:46:00,43.0,37.0,29.90,West,270,8.0,18.0,78,0.00,,,0.00,Rainwise IP-100,2013-03-11 16:46:00,
2013-03-11 12:51:00,43.0,36.0,29.89,SW,225,6.0,15.0,76,0.00,,,0.00,Rainwise IP-100,2013-03-11 16:51:00,
2013-03-11 12:56:00,43.0,37.0,29.89,SE,135,5.0,12.0,77,0.00,,,0.00,Rainwise IP-100,2013-03-11 16:56:00,
2013-03-11 13:01:00,44.0,36.0,29.90,WSW,247,5.0,15.0,74,0.00,,,0.00,Rainwise IP-100,2013-03-11 17:01:00,
2013-03-11 13:07:00,44.0,36.0,29.90,SW,225,13.0,17.0,74,0.00,,,0.00,Rainwise IP-100,2013-03-11 17:07:00,
2013-03-11 13:11:00,44.0,37.0,29.90,SW,225,9.0,18.0,76,0.00,,,0.00,Rainwise IP-100,2013-03-11 17:11:00,
2013-03-11 13:16:00,44.0,36.0,29.90,SSW,202,9.0,12.0,73,0.00,,,0.00,Rainwise IP-100,2013-03-11 17:16:00,
2013-03-11 13:21:00,44.0,36.0,29.90,SSW,202,8.0,13.0,74,0.00,,,0.00,Rainwise IP-100,2013-03-11 17:21:00,
2013-03-11 13:26:00,43.0,36.0,29.88,South,180,11.0,12.0,75,0.00,,,0.00,Rainwise IP-100,2013-03-11 17:26:00,
2013-03-11 13:27:00,43.0,36.0,29.88,SW,225,10.0,14.0,74,0.00,,,0.00,Rainwise IP-100,2013-03-11 17:27:00,
2013-03-11 13:31:00,43.0,36.0,29.88,SSE,157,8.0,15.0,74,0.00,,,0.00,Rainwise IP-100,2013-03-11 17:31:00,
2013-03-11 13:36:00,43.0,36.0,29.88,SW,225,10.0,12.0,74,0.00,,,0.00,Rainwise IP-100,2013-03-11 17:36:00,
2013-03-11 13:41:00,44.0,36.0,29.88,ESE,112,5.0,13.0,72,0.00,,,0.00,Rainwise IP-100,2013-03-11 17:41:00,
2013-03-11 13:46:00,43.0,36.0,29.88,SW,225,8.0,14.0,74,0.00,,,0.00,Rainwise IP-100,2013-03-11 17:46:00,
2013-03-11 13:51:00,44.0,36.0,29.88,West,270,6.0,13.0,72,0.00,,,0.00,Rainwise IP-100,2013-03-11 17:51:00,
2013-03-11 13:56:00,44.0,36.0,29.88,SW,225,10.0,15.0,74,0.00,,,0.00,Rainwise IP-100,2013-03-11 17:56:00,
2013-03-11 14:01:00,43.0,36.0,29.88,SW,225,11.0,20.0,74,0.00,,,0.00,Rainwise IP-100,2013-03-11 18:01:00,
2013-03-11 14:06:00,43.0,36.0,29.88,SW,225,4.0,17.0,76,0.00,,,0.00,Rainwise IP-100,2013-03-11 18:06:00,
2013-03-11 14:11:00,43.0,36.0,29.88,WSW,247,6.0,19.0,74,0.00,,,0.00,Rainwise IP-100,2013-03-11 18:11:00,
2013-03-11 14:16:00,43.0,36.0,29.88,SW,225,11.0,19.0,76,0.00,,,0.00,Rainwise IP-100,2013-03-11 18:16:00,
2013-03-11 14:21:00,43.0,36.0,29.87,SSW,202,4.0,19.0,76,0.00,,,0.00,Rainwise IP-100,2013-03-11 18:21:00,
2013-03-11 14:26:00,43.0,36.0,29.87,SE,135,9.0,15.0,76,0.00,,,0.00,Rainwise IP-100,2013-03-11 18:26:00,
2013-03-11 14:31:00,44.0,36.0,29.88,SW,225,12.0,17.0,74,0.00,,,0.00,Rainwise IP-100,2013-03-11 18:31:00,
2013-03-11 14:36:00,43.0,37.0,29.88,SW,225,7.0,19.0,77,0.00,,,0.00,Rainwise IP-100,2013-03-11 18:36:00,
2013-03-11 14:41:00,44.0,37.0,29.88,SSW,202,5.0,16.0,76,0.00,,,0.00,Rainwise IP-100,2013-03-11 18:41:00,
2013-03-11 14:46:00,44.0,36.0,29.88,SW,225,10.0,16.0,74,0.00,,,0.00,Rainwise IP-100,2013-03-11 18:46:00,
2013-03-11 14:51:00,44.0,36.0,29.87,SW,225,12.0,16.0,74,0.00,,,0.00,Rainwise IP-100,2013-03-11 18:51:00,
2013-03-11 14:56:00,44.0,36.0,29.87,SSW,202,5.0,17.0,74,0.00,,,0.00,Rainwise IP-100,2013-03-11 18:56:00,
2013-03-11 15:01:00,44.0,36.0,29.87,South,180,3.0,14.0,73,0.00,,,0.00,Rainwise IP-100,2013-03-11 19:01:00,
2013-03-11 15:06:00,44.0,36.0,29.87,SE,135,6.0,11.0,72,0.00,,,0.00,Rainwise IP-100,2013-03-11 19:06:00,
2013-03-11 15:12:00,43.0,36.0,29.88,SSW,202,5.0,16.0,74,0.00,,,0.00,Rainwise IP-100,2013-03-11 19:12:00,
2013-03-11 15:16:00,43.0,37.0,29.88,SW,225,10.0,18.0,77,0.00,,,0.00,Rainwise IP-100,2013-03-11 19:16:00,
2013-03-11 15:21:00,43.0,36.0,29.88,SW,225,5.0,18.0,76,0.00,,,0.00,Rainwise IP-100,2013-03-11 19:21:00,
2013-03-11 15:26:00,43.0,37.0,29.88,SW,225,11.0,17.0,77,0.00,,,0.00,Rainwise IP-100,2013-03-11 19:26:00,
2013-03-11 15:31:00,43.0,37.0,29.88,WSW,247,8.0,12.0,77,0.00,,,0.00,Rainwise IP-100,2013-03-11 19:31:00,
2013-03-11 15:36:00,42.0,36.0,29.88,West,270,10.0,18.0,78,0.00,,,0.00,Rainwise IP-100,2013-03-11 19:36:00,
2013-03-11 15:41:00,42.0,37.0,29.88,SW,225,10.0,16.0,80,0.00,,,0.00,Rainwise IP-100,2013-03-11 19:41:00,
2013-03-11 15:46:00,42.0,36.0,29.88,WSW,247,9.0,16.0,79,0.00,,,0.00,Rainwise IP-100,2013-03-11 19:46:00,
2013-03-11 15:51:00,42.0,36.0,29.88,WSW,247,8.0,10.0,79,0.00,,,0.00,Rainwise IP-100,2013-03-11 19:51:00,
2013-03-11 15:56:00,42.0,37.0,29.88,SW,225,10.0,16.0,80,0.00,,,0.00,Rainwise IP-100,2013-03-11 19:56:00,
2013-03-11 16:01:00,41.0,36.0,29.87,SW,225,10.0,16.0,81,0.00,,,0.00,Rainwise IP-100,2013-03-11 20:01:00,
2013-03-11 16:06:00,41.0,37.0,29.87,SW,225,7.0,18.0,83,0.00,,,0.00,Rainwise IP-100,2013-03-11 20:06:00,
2013-03-11 16:11:00,41.0,37.0,29.86,SW,225,8.0,17.0,83,0.00,,,0.00,Rainwise IP-100,2013-03-11 20:11:00,
2013-03-11 16:16:00,41.0,37.0,29.86,SW,225,9.0,14.0,83,0.00,,,0.00,Rainwise IP-100,2013-03-11 20:16:00,
2013-03-11 16:21:00,41.0,37.0,29.85,SE,135,3.0,13.0,83,0.00,,,0.00,Rainwise IP-100,2013-03-11 20:21:00,
2013-03-11 16:26:00,41.0,37.0,29.85,SW,225,11.0,11.0,83,0.00,,,0.00,Rainwise IP-100,2013-03-11 20:26:00,
2013-03-11 16:31:00,41.0,37.0,29.85,SW,225,6.0,13.0,83,0.00,,,0.00,Rainwise IP-100,2013-03-11 20:31:00,
2013-03-11 16:36:00,41.0,37.0,29.85,SSW,202,3.0,13.0,84,0.00,,,0.00,Rainwise IP-100,2013-03-11 20:36:00,
2013-03-11 16:41:00,41.0,37.0,29.85,SW,225,7.0,12.0,84,0.00,,,0.00,Rainwise IP-100,2013-03-11 20:41:00,
2013-03-11 16:46:00,41.0,37.0,29.85,SW,225,3.0,12.0,84,0.00,,,0.00,Rainwise IP-100,2013-03-11 20:46:00,
2013-03-11 16:51:00,41.0,37.0,29.84,SSW,202,8.0,11.0,84,0.00,,,0.00,Rainwise IP-100,2013-03-11 20:51:00,
2013-03-11 16:56:00,40.0,36.0,29.84,SSW,202,7.0,14.0,85,0.00,,,0.00,Rainwise IP-100,2013-03-11 20:56:00,
2013-03-11 17:01:00,40.0,36.0,29.84,SW,225,3.0,13.0,85,0.00,,,0.00,Rainwise IP-100,2013-03-11 21:01:00,
2013-03-11 17:06:00,40.0,37.0,29.84,WSW,247,5.0,13.0,86,0.00,,,0.00,Rainwise IP-100,2013-03-11 21:06:00,
2013-03-11 17:11:00,40.0,36.0,29.85,SSW,202,5.0,13.0,85,0.00,,,0.00,Rainwise IP-100,2013-03-11 21:11:00,
2013-03-11 17:12:00,40.0,37.0,29.85,South,180,5.0,13.0,86,0.00,,,0.00,Rainwise IP-100,2013-03-11 21:12:00,
2013-03-11 17:17:00,40.0,37.0,29.85,WSW,247,8.0,12.0,86,0.00,,,0.00,Rainwise IP-100,2013-03-11 21:17:00,
2013-03-11 17:21:00,40.0,37.0,29.84,SSW,202,8.0,13.0,86,0.00,,,0.00,Rainwise IP-100,2013-03-11 21:21:00,
2013-03-11 17:26:00,40.0,37.0,29.84,SSW,202,4.0,12.0,86,0.00,,,0.00,Rainwise IP-100,2013-03-11 21:26:00,
2013-03-11 17:31:00,40.0,37.0,29.84,SW,225,12.0,13.0,87,0.00,,,0.00,Rainwise IP-100,2013-03-11 21:31:00,
2013-03-11 17:36:00,40.0,37.0,29.83,SW,225,9.0,13.0,88,0.00,,,0.00,Rainwise IP-100,2013-03-11 21:36:00,
2013-03-11 17:41:00,40.0,37.0,29.83,SSW,202,3.0,10.0,88,0.00,,,0.00,Rainwise IP-100,2013-03-11 21:41:00,
2013-03-11 17:46:00,39.0,36.0,29.83,SSE,157,4.0,10.0,88,0.00,,,0.00,Rainwise IP-100,2013-03-11 21:46:00,
2013-03-11 17:51:00,40.0,37.0,29.83,SSE,157,5.0,14.0,88,0.00,,,0.00,Rainwise IP-100,2013-03-11 21:51:00,
2013-03-11 17:56:00,39.0,36.0,29.83,SE,135,5.0,12.0,89,0.00,,,0.00,Rainwise IP-100,2013-03-11 21:56:00,
2013-03-11 18:01:00,39.0,36.0,29.83,SW,225,10.0,15.0,89,0.00,,,0.00,Rainwise IP-100,2013-03-11 22:01:00,
2013-03-11 18:06:00,39.0,36.0,29.83,SW,225,13.0,13.0,89,0.00,,,0.00,Rainwise IP-100,2013-03-11 22:06:00,
2013-03-11 18:11:00,39.0,36.0,29.84,SSW,202,7.0,13.0,89,0.00,,,0.00,Rainwise IP-100,2013-03-11 22:11:00,
2013-03-11 18:16:00,39.0,37.0,29.84,SSW,202,5.0,10.0,90,0.00,,,0.00,Rainwise IP-100,2013-03-11 22:16:00,
2013-03-11 18:21:00,39.0,37.0,29.84,SW,225,5.0,17.0,90,0.00,,,0.00,Rainwise IP-100,2013-03-11 22:21:00,
2013-03-11 18:26:00,39.0,37.0,29.84,WSW,247,7.0,11.0,90,0.00,,,0.00,Rainwise IP-100,2013-03-11 22:26:00,
2013-03-11 18:31:00,39.0,37.0,29.84,SSW,202,6.0,13.0,90,0.00,,,0.00,Rainwise IP-100,2013-03-11 22:31:00,
2013-03-11 18:36:00,39.0,37.0,29.84,SW,225,6.0,8.0,91,0.00,,,0.00,Rainwise IP-100,2013-03-11 22:36:00,
2013-03-11 18:41:00,39.0,37.0,29.84,SW,225,7.0,12.0,90,0.00,,,0.00,Rainwise IP-100,2013-03-11 22:41:00,
2013-03-11 18:46:00,39.0,37.0,29.84,South,180,7.0,10.0,91,0.00,,,0.00,Rainwise IP-100,2013-03-11 22:46:00,
2013-03-11 18:51:00,39.0,37.0,29.84,SW,225,5.0,10.0,91,0.00,,,0.00,Rainwise IP-100,2013-03-11 22:51:00,
2013-03-11 18:56:00,39.0,37.0,29.84,SE,135,7.0,10.0,92,0.00,,,0.00,Rainwise IP-100,2013-03-11 22:56:00,
2013-03-11 19:01:00,39.0,37.0,29.84,SW,225,7.0,11.0,92,0.00,,,0.00,Rainwise IP-100,2013-03-11 23:01:00,
2013-03-11 19:02:00,39.0,37.0,29.84,West,270,4.0,11.0,92,0.00,,,0.00,Rainwise IP-100,2013-03-11 23:02:00,
2013-03-11 19:07:00,39.0,37.0,29.84,SW,225,7.0,13.0,92,0.00,,,0.00,Rainwise IP-100,2013-03-11 23:07:00,
2013-03-11 19:12:00,39.0,37.0,29.84,SSW,202,4.0,13.0,92,0.00,,,0.00,Rainwise IP-100,2013-03-11 23:12:00,
2013-03-11 19:16:00,39.0,37.0,29.84,SSW,202,5.0,10.0,92,0.00,,,0.00,Rainwise IP-100,2013-03-11 23:16:00,
2013-03-11 19:21:00,39.0,37.0,29.84,SW,225,8.0,9.0,92,0.00,,,0.00,Rainwise IP-100,2013-03-11 23:21:00,
2013-03-11 19:26:00,39.0,37.0,29.84,SSW,202,6.0,11.0,93,0.00,,,0.00,Rainwise IP-100,2013-03-11 23:26:00,
2013-03-11 19:31:00,39.0,37.0,29.84,South,180,6.0,14.0,92,0.00,,,0.00,Rainwise IP-100,2013-03-11 23:31:00,
2013-03-11 19:36:00,39.0,37.0,29.84,SW,225,3.0,11.0,93,0.00,,,0.00,Rainwise IP-100,2013-03-11 23:36:00,
2013-03-11 19:41:00,39.0,37.0,29.85,South,180,6.0,12.0,93,0.00,,,0.00,Rainwise IP-100,2013-03-11 23:41:00,
2013-03-11 19:46:00,39.0,37.0,29.85,SW,225,5.0,10.0,93,0.00,,,0.00,Rainwise IP-100,2013-03-11 23:46:00,
2013-03-11 19:51:00,39.0,37.0,29.84,WSW,247,10.0,10.0,93,0.00,,,0.00,Rainwise IP-100,2013-03-11 23:51:00,
2013-03-11 19:56:00,39.0,37.0,29.84,SSW,202,4.0,10.0,93,0.00,,,0.00,Rainwise IP-100,2013-03-11 23:56:00,
2013-03-11 20:01:00,39.0,37.0,29.85,SW,225,5.0,10.0,93,0.00,,,0.00,Rainwise IP-100,2013-03-12 00:01:00,
2013-03-11 20:07:00,39.0,38.0,29.85,SSE,157,3.0,10.0,94,0.00,,,0.00,Rainwise IP-100,2013-03-12 00:07:00,
2013-03-11 20:12:00,39.0,37.0,29.85,SSE,157,5.0,9.0,93,0.00,,,0.00,Rainwise IP-100,2013-03-12 00:12:00,
2013-03-11 20:17:00,39.0,38.0,29.85,SW,225,4.0,12.0,94,0.00,,,0.00,Rainwise IP-100,2013-03-12 00:17:00,
2013-03-11 20:22:00,39.0,38.0,29.83,South,180,10.0,10.0,94,0.00,,,0.00,Rainwise IP-100,2013-03-12 00:22:00,
2013-03-11 20:26:00,39.0,38.0,29.83,SW,225,7.0,10.0,94,0.00,,,0.00,Rainwise IP-100,2013-03-12 00:26:00,
2013-03-11 20:31:00,39.0,38.0,29.83,South,180,5.0,10.0,94,0.00,,,0.00,Rainwise IP-100,2013-03-12 00:31:00,
2013-03-11 20:32:00,39.0,38.0,29.83,SW,225,3.0,10.0,94,0.00,,,0.00,Rainwise IP-100,2013-03-12 00:32:00,
2013-03-11 20:36:00,39.0,38.0,29.83,SSW,202,6.0,10.0,95,0.00,,,0.00,Rainwise IP-100,2013-03-12 00:36:00,
2013-03-11 20:41:00,39.0,38.0,29.83,West,270,1.0,9.0,94,0.00,,,0.00,Rainwise IP-100,2013-03-12 00:41:00,
2013-03-11 20:46:00,39.0,38.0,29.83,SSW,202,3.0,9.0,95,0.00,,,0.00,Rainwise IP-100,2013-03-12 00:46:00,
2013-03-11 20:51:00,39.0,38.0,29.84,SW,225,8.0,8.0,95,0.00,,,0.00,Rainwise IP-100,2013-03-12 00:51:00,
2013-03-11 20:56:00,39.0,38.0,29.84,SW,225,6.0,12.0,95,0.00,,,0.00,Rainwise IP-100,2013-03-12 00:56:00,
2013-03-11 21:01:00,40.0,39.0,29.85,SW,225,5.0,9.0,95,0.00,,,0.00,Rainwise IP-100,2013-03-12 01:01:00,
2013-03-11 21:06:00,40.0,39.0,29.85,SSW,202,1.0,16.0,96,0.00,,,0.00,Rainwise IP-100,2013-03-12 01:06:00,
2013-03-11 21:11:00,40.0,39.0,29.84,SW,225,4.0,13.0,95,0.00,,,0.00,Rainwise IP-100,2013-03-12 01:11:00,
2013-03-11 21:16:00,40.0,39.0,29.84,SW,225,4.0,11.0,96,0.00,,,0.00,Rainwise IP-100,2013-03-12 01:16:00,
2013-03-11 21:21:00,40.0,39.0,29.84,WSW,247,6.0,11.0,96,0.00,,,0.00,Rainwise IP-100,2013-03-12 01:21:00,
2013-03-11 21:26:00,40.0,39.0,29.84,South,180,2.0,11.0,97,0.00,,,0.00,Rainwise IP-100,2013-03-12 01:26:00,
2013-03-11 21:31:00,40.0,39.0,29.83,South,180,5.0,9.0,96,0.00,,,0.00,Rainwise IP-100,2013-03-12 01:31:00,
2013-03-11 21:36:00,40.0,39.0,29.83,SE,135,5.0,12.0,97,0.00,,,0.00,Rainwise IP-100,2013-03-12 01:36:00,
2013-03-11 21:41:00,40.0,39.0,29.83,SSW,202,4.0,8.0,96,0.00,,,0.00,Rainwise IP-100,2013-03-12 01:41:00,
2013-03-11 21:46:00,40.0,39.0,29.83,SSE,157,6.0,10.0,97,0.00,,,0.00,Rainwise IP-100,2013-03-12 01:46:00,
2013-03-11 21:51:00,40.0,39.0,29.84,SW,225,5.0,10.0,97,0.00,,,0.00,Rainwise IP-100,2013-03-12 01:51:00,
2013-03-11 21:56:00,40.0,39.0,29.84,SSE,157,3.0,10.0,97,0.00,,,0.00,Rainwise IP-100,2013-03-12 01:56:00,
2013-03-11 22:01:00,40.0,39.0,29.83,South,180,9.0,10.0,97,0.00,,,0.00,Rainwise IP-100,2013-03-12 02:01:00,
2013-03-11 22:07:00,40.0,39.0,29.83,SSW,202,5.0,12.0,97,0.00,,,0.00,Rainwise IP-100,2013-03-12 02:07:00,
2013-03-11 22:12:00,40.0,39.0,29.84,SSW,202,5.0,10.0,97,0.00,,,0.00,Rainwise IP-100,2013-03-12 02:12:00,
2013-03-11 22:16:00,40.0,39.0,29.84,SSE,157,7.0,9.0,97,0.00,,,0.00,Rainwise IP-100,2013-03-12 02:16:00,
2013-03-11 22:21:00,40.0,39.0,29.83,SE,135,3.0,8.0,97,0.00,,,0.00,Rainwise IP-100,2013-03-12 02:21:00,
2013-03-11 22:26:00,40.0,39.0,29.83,South,180,6.0,7.0,97,0.00,,,0.00,Rainwise IP-100,2013-03-12 02:26:00,
2013-03-11 22:31:00,40.0,39.0,29.83,SSW,202,4.0,11.0,97,0.00,,,0.00,Rainwise IP-100,2013-03-12 02:31:00,
2013-03-11 22:36:00,40.0,39.0,29.83,SE,135,3.0,8.0,97,0.00,,,0.00,Rainwise IP-100,2013-03-12 02:36:00,
2013-03-11 22:41:00,40.0,39.0,29.83,SSW,202,5.0,11.0,97,0.00,,,0.00,Rainwise IP-100,2013-03-12 02:41:00,
2013-03-11 22:46:00,40.0,40.0,29.83,SW,225,7.0,8.0,98,0.00,,,0.00,Rainwise IP-100,2013-03-12 02:46:00,
2013-03-11 22:51:00,40.0,39.0,29.84,SW,225,3.0,10.0,97,0.00,,,0.00,Rainwise IP-100,2013-03-12 02:51:00,
2013-03-11 22:56:00,40.0,40.0,29.84,South,180,7.0,11.0,98,0.00,,,0.00,Rainwise IP-100,2013-03-12 02:56:00,
2013-03-11 23:01:00,40.0,40.0,29.84,SSW,202,3.0,12.0,98,0.00,,,0.00,Rainwise IP-100,2013-03-12 03:01:00,
2013-03-11 23:06:00,40.0,40.0,29.84,SW,225,6.0,10.0,99,0.00,,,0.00,Rainwise IP-100,2013-03-12 03:06:00,
2013-03-11 23:11:00,40.0,40.0,29.82,South,180,7.0,10.0,98,0.00,,,0.00,Rainwise IP-100,2013-03-12 03:11:00,
2013-03-11 23:16:00,40.0,40.0,29.82,SSW,202,4.0,10.0,99,0.00,,,0.00,Rainwise IP-100,2013-03-12 03:16:00,
2013-03-11 23:21:00,40.0,40.0,29.83,SSE,157,6.0,9.0,98,0.00,,,0.00,Rainwise IP-100,2013-03-12 03:21:00,
2013-03-11 23:25:00,40.0,40.0,29.83,South,180,4.0,10.0,99,0.00,,,0.00,Rainwise IP-100,2013-03-12 03:25:00,
2013-03-11 23:27:00,40.0,40.0,29.83,South,180,6.0,10.0,99,0.00,,,0.00,Rainwise IP-100,2013-03-12 03:27:00,
2013-03-11 23:32:00,40.0,40.0,29.83,South,180,2.0,8.0,98,0.00,,,0.00,Rainwise IP-100,2013-03-12 03:32:00,
2013-03-11 23:37:00,40.0,40.0,29.83,South,180,3.0,7.0,99,0.00,,,0.00,Rainwise IP-100,2013-03-12 03:37:00,
2013-03-11 23:41:00,40.0,40.0,29.84,SSW,202,6.0,8.0,98,0.00,,,0.00,Rainwise IP-100,2013-03-12 03:41:00,
2013-03-11 23:46:00,40.0,40.0,29.84,South,180,4.0,9.0,99,0.00,,,0.00,Rainwise IP-100,2013-03-12 03:46:00,
2013-03-11 23:47:00,40.0,40.0,29.84,SSE,157,5.0,6.0,99,0.00,,,0.00,Rainwise IP-100,2013-03-12 03:47:00,
2013-03-11 23:51:00,40.0,40.0,29.84,South,180,0.0,7.0,98,0.00,,,0.00,Rainwise IP-100,2013-03-12 03:51:00,
2013-03-11 23:56:00,40.0,40.0,29.84,South,180,7.0,7.0,99,0.00,,,0.00,Rainwise IP-100,2013-03-12 03:56:00,